GW3558 Weather Reports


Display with metric or nautical units.
time (UTC)temp
F
wind
direction
speed
MPH
gust
MPH
rain 1hr
in
rain 24hr
in
rain mn
in
humidity
%
barometer
mb
20260901192517 69 106 0.0 6.0 0.00 0.00 0.00 38 1014.3
20260901192019 69 84 0.0 7.0 0.00 0.00 0.00 39 1014.4
20260901191558 69 85 0.0 4.0 0.00 0.00 0.00 38 1014.4
20260901191023 68 103 0.0 8.0 0.00 0.00 0.00 38 1014.4
20260901190523 69 84 0.0 8.0 0.00 0.00 0.00 38 1014.5
20260901190045 69 96 0.0 7.0 0.00 0.00 0.00 38 1014.6
20260901185521 69 107 0.0 7.0 0.00 0.00 0.00 40 1014.6
20260901185017 68 94 0.0 3.0 0.00 0.00 0.00 38 1014.6
20260901184547 68 86 0.0 4.0 0.00 0.00 0.00 39 1014.7
20260901184019 69 111 0.0 6.0 0.00 0.00 0.00 39 1014.7
20260901183520 69 98 0.0 6.0 0.00 0.00 0.00 39 1014.9
20260901183048 69 90 0.0 8.0 0.00 0.00 0.00 39 1014.7
20260901182518 69 99 1.0 8.0 0.00 0.00 0.00 40 1014.8
20260901182017 69 115 1.0 7.0 0.00 0.00 0.00 38 1014.9
20260901181547 69 100 1.0 7.0 0.00 0.00 0.00 39 1014.7
20260901181021 69 94 0.0 6.0 0.00 0.00 0.00 41 1014.8
20260901180518 68 86 0.0 8.0 0.00 0.00 0.00 40 1015.0
20260901180043 68 109 1.0 7.0 0.00 0.00 0.00 40 1014.9
20260901175519 69 102 1.0 6.0 0.00 0.00 0.00 37 1015.0
20260901175023 69 103 0.0 4.0 0.00 0.00 0.00 40 1015.1
20260901174551 69 104 0.0 4.0 0.00 0.00 0.00 39 1015.1
20260901174019 70 101 0.0 4.0 0.00 0.00 0.00 39 1015.0
20260901173518 69 103 0.0 3.0 0.00 0.00 0.00 41 1014.7
20260901173057 69 87 0.0 4.0 0.00 0.00 0.00 39 1014.8
20260901172518 68 95 0.0 3.0 0.00 0.00 0.00 35 1014.7
20260901172020 68 45 0.0 3.0 0.00 0.00 0.00 39 1014.7
20260901171556 68 104 0.0 1.0 0.00 0.00 0.00 43 1014.7
20260901171019 67 67 0.0 0.0 0.00 0.00 0.00 39 1015.0
20260901170519 67 67 0.0 0.0 0.00 0.00 0.00 44 1014.9
20260901170046 65 83 0.0 0.0 0.00 0.00 0.00 44 1014.9
20260901165519 65 70 0.0 0.0 0.00 0.00 0.00 43 1014.9
20260901165020 64 69 0.0 0.0 0.00 0.00 0.00 48 1014.8
20260901164544 64 69 0.0 0.0 0.00 0.00 0.00 45 1015.0
20260901164020 64 69 0.0 0.0 0.00 0.00 0.00 46 1014.8
20260901163523 63 69 0.0 0.0 0.00 0.00 0.00 47 1015.0
20260901163049 63 69 0.0 0.0 0.00 0.00 0.00 48 1015.0
20260901162517 62 69 0.0 0.0 0.00 0.00 0.00 49 1014.7
20260901162019 63 69 0.0 0.0 0.00 0.00 0.00 45 1014.8
20260901161601 63 69 0.0 0.0 0.00 0.00 0.00 52 1015.2
20260901161021 63 69 0.0 0.0 0.00 0.00 0.00 49 1015.4
20260901160523 63 69 0.0 0.0 0.00 0.00 0.00 47 1015.5
20260901160107 63 69 0.0 0.0 0.00 0.00 0.00 45 1015.4
20260901155519 63 69 0.0 0.0 0.00 0.00 0.00 47 1015.4
20260901155020 63 69 0.0 0.0 0.00 0.00 0.00 46 1015.3
20260901154553 63 69 0.0 0.0 0.00 0.00 0.00 45 1015.3
20260901154016 63 69 0.0 0.0 0.00 0.00 0.00 50 1015.2
20260901153522 63 69 0.0 0.0 0.00 0.00 0.00 45 1015.1
20260901153050 62 69 0.0 0.0 0.00 0.00 0.00 47 1015.2
20260901152518 61 69 0.0 0.0 0.00 0.00 0.00 48 1015.1
20260901152018 61 69 0.0 0.0 0.00 0.00 0.00 52 1015.3
20260901151540 60 69 0.0 0.0 0.00 0.00 0.00 46 1015.3
20260901151019 60 69 0.0 0.0 0.00 0.00 0.00 56 1015.1
20260901150518 60 69 0.0 0.0 0.00 0.00 0.00 51 1015.2
20260901150048 60 69 0.0 0.0 0.00 0.00 0.00 49 1015.1
20260901145516 60 69 0.0 0.0 0.00 0.00 0.00 51 1015.1
20260901145021 60 69 0.0 0.0 0.00 0.00 0.00 49 1015.0
20260901144549 60 69 0.0 0.0 0.00 0.00 0.00 48 1015.2
20260901144022 60 69 0.0 0.0 0.00 0.00 0.00 51 1015.1
20260901143519 59 69 0.0 0.0 0.00 0.00 0.00 48 1015.2
20260901143058 59 69 0.0 0.0 0.00 0.00 0.00 48 1015.4
20260901142517 59 69 0.0 0.0 0.00 0.00 0.00 47 1015.3
20260901142017 59 69 0.0 0.0 0.00 0.00 0.00 47 1015.4
20260901141548 59 69 0.0 0.0 0.00 0.00 0.00 46 1015.5
20260901141019 59 69 0.0 0.0 0.00 0.00 0.00 47 1015.4
20260901140518 58 69 0.0 0.0 0.00 0.00 0.00 47 1015.4
20260901140045 58 69 0.0 0.0 0.00 0.00 0.00 47 1015.3
20260901135521 58 69 0.0 0.0 0.00 0.00 0.00 47 1015.3
20260901135023 58 69 0.0 0.0 0.00 0.00 0.00 48 1015.2
20260901134542 57 69 0.0 0.0 0.00 0.00 0.00 48 1015.2
20260901134020 57 69 0.0 0.0 0.00 0.00 0.00 48 1015.2
20260901133517 57 69 0.0 0.0 0.00 0.00 0.00 48 1015.2
20260901133043 57 69 0.0 0.0 0.00 0.00 0.00 47 1015.1
20260901132519 57 69 0.0 0.0 0.00 0.00 0.00 47 1015.0
20260901132020 58 69 0.0 0.0 0.00 0.00 0.00 47 1015.0
20260901131549 58 69 0.0 0.0 0.00 0.00 0.00 47 1015.0
20260901131017 58 69 0.0 0.0 0.00 0.00 0.00 47 1015.0
20260901130520 57 69 0.0 0.0 0.00 0.00 0.00 48 1015.0
20260901130056 57 69 0.0 0.0 0.00 0.00 0.00 48 1015.0
20260901125523 57 69 0.0 0.0 0.00 0.00 0.00 48 1015.0
20260901125019 57 69 0.0 0.0 0.00 0.00 0.00 48 1015.1
20260901124545 57 69 0.0 0.0 0.00 0.00 0.00 48 1015.1
20260901124019 58 69 0.0 0.0 0.00 0.00 0.00 47 1015.1
20260901123519 58 69 0.0 0.0 0.00 0.00 0.00 47 1015.1
20260901123043 58 69 0.0 0.0 0.00 0.00 0.00 47 1015.3
20260901122518 58 69 0.0 0.0 0.00 0.00 0.00 47 1015.3
20260901122017 58 69 0.0 0.0 0.00 0.00 0.00 47 1015.2
20260901121550 58 69 0.0 0.0 0.00 0.00 0.00 47 1015.3
20260901121019 58 69 0.0 0.0 0.00 0.00 0.00 47 1015.3
20260901120519 58 69 0.0 0.0 0.00 0.00 0.00 47 1015.3
20260901120047 58 69 0.0 0.0 0.00 0.00 0.00 47 1015.3
20260901115521 58 69 0.0 0.0 0.00 0.00 0.00 47 1015.3
20260901115023 58 69 0.0 0.0 0.00 0.00 0.00 46 1015.5
20260901114627 58 69 0.0 0.0 0.00 0.00 0.00 46 1015.4
20260901114020 58 69 0.0 0.0 0.00 0.00 0.00 47 1015.5
20260901113521 58 69 0.0 0.0 0.00 0.00 0.00 47 1015.5
20260901113053 58 69 0.0 0.0 0.00 0.00 0.00 47 1015.5
20260901112519 58 69 0.0 0.0 0.00 0.00 0.00 47 1015.6
20260901112019 58 69 0.0 0.0 0.00 0.00 0.00 48 1015.6
20260901111552 58 69 0.0 0.0 0.00 0.00 0.00 48 1015.6
20260901111020 58 69 0.0 0.0 0.00 0.00 0.00 47 1015.8
20260901110521 58 69 0.0 0.0 0.00 0.00 0.00 48 1015.8
20260901110047 58 69 0.0 0.0 0.00 0.00 0.00 47 1015.8
20260901105518 58 69 0.0 0.0 0.00 0.00 0.00 48 1015.8
20260901105023 58 69 0.0 0.0 0.00 0.00 0.00 47 1015.8
20260901104543 58 69 0.0 0.0 0.00 0.00 0.00 47 1015.9
20260901104020 58 69 0.0 0.0 0.00 0.00 0.00 47 1015.9
20260901103519 58 69 0.0 0.0 0.00 0.00 0.00 47 1016.0
20260901103050 58 69 0.0 0.0 0.00 0.00 0.00 48 1016.0
20260901102518 58 69 0.0 0.0 0.00 0.00 0.00 48 1016.0
20260901102016 57 69 0.0 0.0 0.00 0.00 0.00 49 1016.0
20260901101553 57 69 0.0 0.0 0.00 0.00 0.00 49 1016.1
20260901101022 57 69 0.0 0.0 0.00 0.00 0.00 49 1016.1
20260901100518 57 69 0.0 0.0 0.00 0.00 0.00 50 1016.1
20260901095520 56 69 0.0 0.0 0.00 0.00 0.00 50 1016.1
20260901095020 56 69 0.0 0.0 0.00 0.00 0.00 50 1016.1
20260901094546 56 69 0.0 0.0 0.00 0.00 0.00 50 1016.1
20260901094018 57 69 0.0 0.0 0.00 0.00 0.00 50 1016.1
20260901093518 57 69 0.0 0.0 0.00 0.00 0.00 50 1016.2
20260901093038 57 69 0.0 0.0 0.00 0.00 0.00 49 1016.3
20260901092516 57 69 0.0 0.0 0.00 0.00 0.00 49 1016.3
20260901092019 57 69 0.0 0.0 0.00 0.00 0.00 49 1016.4
20260901091541 57 69 0.0 0.0 0.00 0.00 0.00 49 1016.3
20260901091020 57 69 0.0 0.0 0.00 0.00 0.00 49 1016.3
20260901090518 57 69 0.0 0.0 0.00 0.00 0.00 49 1016.3
20260901090038 57 69 0.0 0.0 0.00 0.00 0.00 49 1016.4
20260901085521 57 69 0.0 0.0 0.00 0.00 0.00 49 1016.3
20260901085019 58 69 0.0 0.0 0.00 0.00 0.00 49 1016.3
20260901084540 58 69 0.0 0.0 0.00 0.00 0.00 48 1016.3
20260901084017 58 69 0.0 0.0 0.00 0.00 0.00 48 1016.3
20260901083517 58 69 0.0 0.0 0.00 0.00 0.00 48 1016.4
20260901083038 58 69 0.0 0.0 0.00 0.00 0.00 48 1016.4
20260901082515 58 69 0.0 0.0 0.00 0.00 0.00 48 1016.4
20260901082017 58 69 0.0 0.0 0.00 0.00 0.00 48 1016.5
20260901081541 58 69 0.0 0.0 0.00 0.00 0.00 48 1016.5
20260901081019 58 69 0.0 0.0 0.00 0.00 0.00 48 1016.5
20260901080519 58 69 0.0 0.0 0.00 0.00 0.00 48 1016.6
20260901080037 58 69 0.0 0.0 0.00 0.00 0.00 49 1016.6
20260901075516 58 69 0.0 0.0 0.00 0.00 0.00 49 1016.6
20260901075022 58 69 0.0 0.0 0.00 0.00 0.00 48 1016.6
20260901074544 58 69 0.0 0.0 0.00 0.00 0.00 49 1016.6
20260901074018 58 69 0.0 0.0 0.00 0.00 0.00 49 1016.6
20260901073519 58 69 0.0 0.0 0.00 0.00 0.00 48 1016.5
20260901073036 58 69 0.0 0.0 0.00 0.00 0.00 48 1016.6
20260901072521 58 69 0.0 0.0 0.00 0.00 0.00 48 1016.6
20260901072018 58 69 0.0 0.0 0.00 0.00 0.00 48 1016.6
20260901071540 58 69 0.0 0.0 0.00 0.00 0.00 48 1016.7
20260901071018 58 69 0.0 0.0 0.00 0.00 0.00 48 1016.7
20260901070517 58 69 0.0 0.0 0.00 0.00 0.00 48 1016.7
20260901070054 58 69 0.0 0.0 0.00 0.00 0.00 48 1016.7
20260901065520 58 69 0.0 0.0 0.00 0.00 0.00 49 1016.8
20260901065020 58 69 0.0 0.0 0.00 0.00 0.00 49 1016.8
20260901064543 58 69 0.0 0.0 0.00 0.00 0.00 48 1016.8
20260901064018 58 69 0.0 0.0 0.00 0.00 0.00 48 1016.9
20260901063520 58 69 0.0 0.0 0.00 0.00 0.00 48 1016.7
20260901063046 58 69 0.0 0.0 0.00 0.00 0.00 48 1016.8
20260901062516 58 69 0.0 0.0 0.00 0.00 0.00 48 1016.9
20260901062020 58 69 0.0 0.0 0.00 0.00 0.00 48 1016.9
20260901061547 58 69 0.0 0.0 0.00 0.00 0.00 48 1016.9
20260901061018 58 69 0.0 0.0 0.00 0.00 0.00 48 1017.0
20260901060519 58 69 0.0 0.0 0.00 0.00 0.00 48 1017.0
20260901060044 58 69 0.0 0.0 0.00 0.00 0.00 48 1017.1
20260901055517 58 69 0.0 0.0 0.00 0.00 0.00 48 1017.1
20260901055016 58 69 0.0 0.0 0.00 0.00 0.00 48 1017.2
20260901054547 58 69 0.0 0.0 0.00 0.00 0.00 48 1017.1
20260901054018 58 69 0.0 0.0 0.00 0.00 0.00 48 1017.2
20260901053518 58 69 0.0 0.0 0.00 0.00 0.00 48 1017.2
20260901053052 58 69 0.0 0.0 0.00 0.00 0.00 48 1017.3
20260901052519 58 69 0.0 0.0 0.00 0.00 0.00 48 1017.4
20260901052020 58 69 0.0 0.0 0.00 0.00 0.00 48 1017.4
20260901051553 58 69 0.0 0.0 0.00 0.00 0.00 48 1017.4
20260901051023 58 69 0.0 0.0 0.00 0.00 0.00 48 1017.4
20260901050516 59 69 0.0 0.0 0.00 0.00 0.00 48 1017.5
20260901050052 59 69 0.0 0.0 0.00 0.00 0.00 48 1017.6
20260901045518 59 69 0.0 0.0 0.00 0.00 0.00 48 1017.7
20260901045018 59 69 0.0 0.0 0.00 0.00 0.00 48 1017.8
20260901044555 58 69 0.0 0.0 0.00 0.00 0.00 48 1017.8
20260901044021 58 69 0.0 0.0 0.00 0.00 0.00 48 1017.7
20260901043518 58 69 0.0 0.0 0.00 0.00 0.00 48 1017.8
20260901043055 58 69 0.0 0.0 0.00 0.00 0.00 49 1017.8
20260901042524 58 69 0.0 0.0 0.00 0.00 0.00 49 1017.8
20260901042019 58 69 0.0 0.0 0.00 0.00 0.00 49 1017.8
20260901041550 58 69 0.0 0.0 0.00 0.00 0.00 49 1017.8
20260901041023 58 69 0.0 0.0 0.00 0.00 0.00 50 1017.8
20260901040519 58 69 0.0 0.0 0.00 0.00 0.00 50 1017.9
20260901040051 58 69 0.0 0.0 0.00 0.00 0.00 50 1017.8
20260901035515 58 69 0.0 0.0 0.00 0.00 0.00 50 1017.7
20260901035016 58 69 0.0 0.0 0.00 0.00 0.00 51 1017.7
20260901034546 58 69 0.0 0.0 0.00 0.00 0.00 51 1017.7
20260901034017 58 69 0.0 0.0 0.00 0.00 0.00 50 1017.6
20260901033519 58 70 0.0 0.0 0.00 0.00 0.00 50 1017.6
20260901033110 58 70 0.0 0.0 0.00 0.00 0.00 50 1017.5
20260901032517 58 70 0.0 0.0 0.00 0.00 0.00 50 1017.4
20260901032017 58 70 0.0 0.0 0.00 0.00 0.00 50 1017.4
20260901031553 58 70 0.0 0.0 0.00 0.00 0.00 50 1017.4
20260901031017 58 70 0.0 0.0 0.00 0.00 0.00 50 1017.2
20260901030519 58 70 0.0 0.0 0.00 0.00 0.00 50 1017.3
20260901030106 58 71 0.0 0.0 0.00 0.00 0.00 50 1017.2
20260901025518 58 71 0.0 0.0 0.00 0.00 0.00 49 1017.3
20260901025016 58 71 0.0 0.0 0.00 0.00 0.00 49 1017.3
20260901024556 58 71 0.0 0.0 0.00 0.00 0.00 49 1017.3
20260901024021 58 72 0.0 0.0 0.00 0.00 0.00 49 1017.3
20260901023517 58 72 0.0 0.0 0.00 0.00 0.00 49 1017.3
20260901023055 59 78 0.0 0.0 0.00 0.00 0.00 48 1017.4
20260901022517 59 78 0.0 0.0 0.00 0.00 0.00 48 1017.4
20260901022019 59 78 0.0 0.0 0.00 0.00 0.00 48 1017.4
20260901021601 59 78 0.0 0.0 0.00 0.00 0.00 47 1017.4
20260901021017 59 78 0.0 0.0 0.00 0.00 0.00 47 1017.5
20260901020519 60 78 0.0 0.0 0.00 0.00 0.00 47 1017.5
20260901020051 60 78 0.0 0.0 0.00 0.00 0.00 46 1017.6
20260901015519 60 78 0.0 0.0 0.00 0.00 0.00 46 1017.8
20260901015018 61 78 0.0 0.0 0.00 0.00 0.00 46 1017.7
20260901014552 61 78 0.0 0.0 0.00 0.00 0.00 45 1017.8
20260901014019 61 78 0.0 0.0 0.00 0.00 0.00 45 1017.8
20260901013518 61 78 0.0 0.0 0.00 0.00 0.00 45 1017.8
20260901013112 61 76 0.0 0.0 0.00 0.00 0.00 45 1017.8
20260901012517 61 78 0.0 0.0 0.00 0.00 0.00 45 1017.9
20260901012020 61 80 0.0 0.0 0.00 0.00 0.00 45 1017.9
20260901011611 61 86 0.0 0.0 0.00 0.00 0.00 46 1017.9
20260901011021 61 82 0.0 2.0 0.00 0.00 0.00 46 1018.0
20260901010517 61 83 0.0 2.0 0.00 0.00 0.00 46 1018.0
20260901010113 61 85 0.0 0.0 0.00 0.00 0.00 46 1018.0
20260901005517 61 87 0.0 0.0 0.00 0.00 0.00 47 1018.0
20260901005022 61 88 0.0 0.0 0.00 0.00 0.00 47 1018.0
20260901004553 61 88 0.0 0.0 0.00 0.00 0.00 47 1018.1
20260901004020 61 88 0.0 0.0 0.00 0.00 0.00 47 1018.2
20260901003516 61 88 0.0 0.0 0.00 0.00 0.00 47 1018.3
20260901003057 61 90 0.0 3.0 0.00 0.00 0.00 46 1018.4
20260901002519 61 93 0.0 3.0 0.00 0.00 0.00 46 1018.4
20260901002023 61 105 0.0 3.0 0.00 0.00 0.00 47 1018.6
20260901001555 62 94 0.0 3.0 0.00 0.00 0.00 47 1018.5
20260901001018 62 93 0.0 0.0 0.00 0.00 0.00 46 1018.6
20260901000516 62 86 0.0 0.0 0.00 0.00 0.00 46 1018.6
20260901000050 63 90 0.0 0.0 0.00 0.00 0.00 46 1018.4
20260831235517 63 97 0.0 0.0 0.00 0.00 0.00 46 1018.6
20260831235018 63 94 0.0 3.0 0.00 0.00 0.00 46 1018.6
20260831234557 63 102 0.0 6.0 0.00 0.00 0.00 46 1018.7
20260831234018 63 96 0.0 6.0 0.00 0.00 0.00 45 1018.8
20260831233517 63 97 0.0 8.0 0.00 0.00 0.00 46 1018.7
20260831233058 63 103 0.0 6.0 0.00 0.00 0.00 45 1018.8
20260831232520 63 104 2.0 6.0 0.00 0.00 0.00 45 1018.9
20260831232019 63 96 1.0 8.0 0.00 0.00 0.00 46 1018.9
20260831231559 63 105 2.0 8.0 0.00 0.00 0.00 45 1019.1
20260831231017 63 113 1.0 8.0 0.00 0.00 0.00 46 1019.1
20260831230519 63 91 2.0 8.0 0.00 0.00 0.00 45 1019.2
20260831230114 64 107 3.0 10.0 0.00 0.00 0.00 44 1019.1
20260831225521 64 107 1.0 10.0 0.00 0.00 0.00 45 1019.1
20260831225019 64 103 2.0 8.0 0.00 0.00 0.00 45 1019.1
20260831224552 64 86 1.0 7.0 0.00 0.00 0.00 45 1019.2
20260831224017 63 98 2.0 8.0 0.00 0.00 0.00 46 1019.3
20260831223518 63 112 2.0 9.0 0.00 0.00 0.00 47 1019.4
20260831223111 64 102 4.0 9.0 0.00 0.00 0.00 47 1019.4
20260831222521 64 106 1.0 9.0 0.00 0.00 0.00 46 1019.5
20260831222019 64 79 2.0 8.0 0.00 0.00 0.00 46 1019.7
20260831221606 64 101 1.0 8.0 0.00 0.00 0.00 47 1019.7
20260831221021 64 102 3.0 8.0 0.00 0.00 0.00 47 1019.5
20260831220521 63 86 0.0 7.0 0.00 0.00 0.00 49 1019.4
20260831220115 63 106 1.0 7.0 0.00 0.00 0.00 49 1019.4
20260831215521 63 104 1.0 6.0 0.00 0.00 0.00 49 1019.4
20260831215020 62 97 1.0 6.0 0.00 0.00 0.00 51 1019.6
20260831214613 62 103 1.0 6.0 0.00 0.00 0.00 50 1019.6
20260831214019 62 109 2.0 9.0 0.00 0.00 0.00 50 1019.7
20260831213518 63 76 2.0 9.0 0.00 0.00 0.00 49 1020.0
20260831213108 64 96 1.0 7.0 0.00 0.00 0.00 49 1019.9
20260831212518 64 114 1.0 7.0 0.00 0.00 0.00 48 1020.0
20260831212022 63 91 0.0 6.0 0.00 0.00 0.00 49 1019.9
20260831211613 63 59 0.0 4.0 0.00 0.00 0.00 50 1020.0
20260831211019 63 103 0.0 7.0 0.00 0.00 0.00 51 1020.0
20260831210523 62 92 0.0 4.0 0.00 0.00 0.00 51 1020.1
20260831210110 62 69 0.0 6.0 0.00 0.00 0.00 49 1020.1
20260831205517 62 81 0.0 7.0 0.00 0.00 0.00 51 1020.2
20260831205021 62 82 0.0 7.0 0.00 0.00 0.00 50 1020.3
20260831204610 62 88 0.0 7.0 0.00 0.00 0.00 51 1020.4
20260831204018 62 98 0.0 10.0 0.00 0.00 0.00 52 1020.4
20260831203520 62 96 1.0 10.0 0.00 0.00 0.00 52 1020.4
20260831203115 62 70 0.0 7.0 0.00 0.00 0.00 52 1020.4
20260831202524 62 103 1.0 8.0 0.00 0.00 0.00 52 1020.4
20260831202024 62 103 0.0 7.0 0.00 0.00 0.00 53 1020.3
20260831201626 61 108 1.0 7.0 0.00 0.00 0.00 53 1020.4
20260831201024 61 107 2.0 7.0 0.00 0.00 0.00 54 1020.4
20260831200520 61 113 0.0 11.0 0.00 0.00 0.00 54 1020.5
20260831200125 61 109 1.0 11.0 0.00 0.00 0.00 53 1020.4
20260831195520 62 107 2.0 9.0 0.00 0.00 0.00 53 1020.5
20260831195018 62 102 1.0 9.0 0.00 0.00 0.00 55 1020.6
20260831194616 61 101 0.0 6.0 0.00 0.00 0.00 55 1020.5
20260831194025 61 90 0.0 7.0 0.00 0.00 0.00 54 1020.6
20260831193519 61 105 0.0 9.0 0.00 0.00 0.00 53 1020.5
20260831193110 61 94 2.0 12.0 0.00 0.00 0.00 54 1020.8